Location: Arpaise
(41.0333°N, 14.7333°E)
Time: 15:15:48
(UTC+00:00)

Meteor 1-21 Rocket - Pass Details

Date: 05 July 2020
Orbit: 833 x 907 km, 81.2° (Epoch: 11 August)

Event Time Altitude Azimuth Distance (km) Brightness Sun altitude
Rises 19:46:05 0° 191° (S) 3,498 7.1 -11.2°
Reaches altitude 10° 19:48:31 10° 192° (SSW) 2,569 6.4 -11.6°
Maximum altitude 19:54:24 81° 280° (W) 923 4.5 -12.3°
Drops below altitude 10° 20:00:22 10° 8° (N) 2,600 7.3 -13.1°
Sets 20:02:50 0° 9° (N) 3,543 8.0 -13.4°
